Pagrindinis puslapis
METAR-TAF:

METAR-TAF

Oro uostai :

Rio Kuartas, Argentina

platuma: 33-07S, ilguma: 064-14W, Aukštis: 420 m

Dabartinis oras

Ataskaita buvo paskelbta 41 minutes, ne 21:00 UTC
Vėjas 15 kt iš Pietryčių
Temperatūra 19°C
Drėgmė 22%
Slėgis 1011 hPa
Matomumas 10 km arba daugiau
nėra debesų žemiau 1500 m ir nėra kamuolinių lietaus debesų

METAR: SAOC 012100Z 14015KT CAVOK 19/M03 Q1011

Laikas: 18:41 (21:41 UTC)


TAF: trūkstamas

Orai ataskaitas ir orų prognozės (METAR, TAF).

turimą stotys yra geltonos ir raudonos taškus žemėlapyje.

Perkelti pele per norėdami pamatyti stoties vardą.

Tada spustelėkite, norėdami matyti oro stebėjimo ir prognozės.

Norėdami pakeisti žemėlapį: spustelėkite ant žalios mygtukų su juodo kryžiaus žemyn,; žalią mygtuką su brūkšneliu, jei norite nutolinti; arba žalių rodyklių gretimoms žemėlapius.


METAR-TAF: